This demonstration page uses our WeatherBlox Daily Observations layout. Learn more.

Left ArrowRight Arrow

Hourly Observations for November 23, 2021

Temp ( °F °C ) Dew Point ( °F °C ) Humidity (%) Winds ( mph kmh ) Pressure ( in mb ) Visibility ( mi km ) Precip ( " mm )
12:15 am 00:15 Clear 27 -2.6 21 -6.3 76 76 Calm 30.15 1021 10 16 0.00 0.00
12:35 am 00:35 Clear 28 -2.5 21 -6.2 76 76 NE 3 6 30.14 1021 10 16 0.00 0.00
12:55 am 00:55 Clear 28 -2.2 21 -6.2 74 74 Calm 30.13 1020 10 16 0.00 0.00
1:15 am 01:15 Clear 27 -2.6 21 -6.1 77 77 Calm 30.13 1020 10 16 0.00 0.00
1:35 am 01:35 Clear 28 -2 21 -6.1 74 74 SSW 3 6 30.12 1020 10 16 0.00 0.00
1:55 am 01:55 Clear 41 4.9 21 -6.2 45 45 SSW 3 6 30.04 1017 10 16 0.00 0.00
2:15 am 02:15 Clear 42 5.4 21 -6 44 44 SSW 3 6 30.02 1017 10 16 0.00 0.00
2:35 am 02:35 Clear 42 5.4 21 -6 44 44 Calm 30.01 1016 10 16 0.00 0.00
2:55 am 02:55 Clear 42 5.6 21 -6 43 43 Calm 30.01 1016 10 16 0.00 0.00
3:15 am 03:15 Clear 28 -2.3 21 -6 76 76 Calm 30.09 1019 10 16 0.00 0.00
3:35 am 03:35 Clear 28 -2.2 21 -6 75 75 SE 3 6 30.08 1019 10 16 0.00 0.00
3:55 am 03:55 Clear 34 1 22 -5.7 61 61 S 5 7 30.04 1017 10 16 0.00 0.00
4:15 am 04:15 Clear 27 -2.6 19 -7.3 70 70 Calm 30.06 1018 10 16 0.00 0.00
4:35 am 04:35 Clear 29 -1.5 21 -6.1 71 71 Calm 30.04 1017 10 16 0.00 0.00
4:55 am 04:55 Clear 31 -0.6 20 -6.8 63 63 SSE 3 6 30.02 1017 10 16 0.00 0.00
5:15 am 05:15 Clear 32 0.1 20 -6.6 61 61 SSE 8 13 30.01 1016 10 16 0.00 0.00
5:35 am 05:35 Clear 33 0.5 21 -6.2 61 61 S 7 11 29.99 1016 10 16 0.00 0.00
5:55 am 05:55 Clear 34 0.9 20 -6.4 59 59 S 6 9 29.99 1015 10 16 0.00 0.00
6:15 am 06:15 Clear 34 1.1 20 -6.5 57 57 SSE 6 9 29.99 1015 10 16 0.00 0.00
6:35 am 06:35 Clear 33 0.7 19 -7 57 57 SSE 5 7 29.99 1016 10 16 0.00 0.00
6:55 am 06:55 Clear 33 0.7 20 -6.7 58 58 SSE 8 13 29.98 1015 10 16 0.00 0.00
7:15 am 07:15 Clear 34 1.1 20 -6.5 57 57 SSE 8 13 29.98 1015 10 16 0.00 0.00
7:35 am 07:35 Clear 37 2.5 20 -6.7 51 51 SSE 6 9 29.96 1015 10 16 0.00 0.00
7:55 am 07:55 Sunny 25 -4 19 -7.4 77 77 SE 3 6 30.02 1016 7 11 0.00 0.00
8:15 am 08:15 Sunny 27 -3 21 -5.9 81 81 Calm 30.01 1016 10 16 0.00 0.00
8:35 am 08:35 Sunny 32 -0.2 25 -4.1 75 75 Calm 29.97 1015 7 11 0.00 0.00
8:55 am 08:55 Sunny 36 2.4 25 -3.8 64 64 Calm 29.93 1014 10 16 0.00 0.00
9:15 am 09:15 Sunny 45 7.1 22 -5.5 41 41 SSE 6 9 29.88 1012 10 16 0.00 0.00
9:35 am 09:35 Sunny 47 8.1 23 -5.2 39 39 S 7 11 29.87 1011 10 16 0.00 0.00
9:55 am 09:55 Sunny 50 10 22 -5.3 34 34 SSW 6 9 29.84 1011 10 16 0.00 0.00
10:15 am 10:15 Sunny 52 11.1 22 -5.5 31 31 S 7 11 29.82 1010 10 16 0.00 0.00
10:35 am 10:35 Sunny 53 11.9 21 -5.9 29 29 S 10 17 29.81 1010 10 16 0.00 0.00
10:55 am 10:55 Sunny 55 12.6 21 -6 27 27 S 10 17 29.80 1009 10 16 0.00 0.00
11:15 am 11:15 Sunny 56 13.1 22 -5.7 27 27 S 12 19 29.77 1008 10 16 0.00 0.00
11:35 am 11:35 Sunny 58 14.2 22 -5.3 26 26 SSW 13 20 29.74 1007 10 16 0.00 0.00
11:55 am 11:55 Sunny 60 15.6 23 -5.2 24 24 S 14 22 29.71 1006 10 16 0.00 0.00
12:15 pm 12:15 Sunny 62 16.5 22 -5.5 22 22 S 13 20 29.68 1005 10 16 0.00 0.00
12:35 pm 12:35 Sunny 63 17 23 -4.9 22 22 SSW 13 20 29.67 1005 10 16 0.00 0.00
12:55 pm 12:55 Sunny 64 17.6 24 -4.4 22 22 S 15 24 29.64 1004 10 16 0.00 0.00
1:15 pm 13:15 Sunny 65 18.4 25 -4.1 21 21 S 15 24 29.62 1003 10 16 0.00 0.00
1:35 pm 13:35 Sunny 68 19.8 24 -4.6 19 19 S 16 26 29.57 1002 10 16 0.00 0.00
1:55 pm 13:55 Sunny 69 20.6 23 -4.8 18 18 S 21 33 29.56 1001 10 16 0.00 0.00
2:15 pm 14:15 Sunny 70 21 24 -4.3 18 18 S 20 31 29.53 1000 10 16 0.00 0.00
2:35 pm 14:35 Sunny 70 21.3 24 -4.5 17 17 S 17 28 29.52 1000 10 16 0.00 0.00
2:55 pm 14:55 Sunny 70 21.3 25 -3.9 18 18 S 17 28 29.51 999 10 16 0.00 0.00
3:15 pm 15:15 Sunny 70 21.1 24 -4.5 18 18 S 20 31 29.50 999 10 16 0.00 0.00
3:35 pm 15:35 Sunny 69 20.7 25 -3.7 19 19 S 15 24 29.51 999 10 16 0.00 0.00
3:55 pm 15:55 Sunny 69 20.5 24 -4.2 19 19 S 16 26 29.51 999 10 16 0.00 0.00
4:15 pm 16:15 Sunny 68 20 25 -4 20 20 S 13 20 29.51 999 10 16 0.00 0.00
4:35 pm 16:35 Sunny 67 19.2 25 -4 21 21 S 10 17 29.52 1000 10 16 0.00 0.00
4:55 pm 16:55 Sunny 62 16.5 25 -3.7 25 25 S 9 15 29.54 1000 10 16 0.00 0.00
5:15 pm 17:15 Sunny 60 15.7 25 -4 26 26 S 10 17 29.55 1001 10 16 0.00 0.00
5:35 pm 17:35 Clear 55 12.6 25 -4 31 31 S 7 11 29.57 1001 10 16 0.00 0.00
5:55 pm 17:55 Clear 53 11.5 25 -4 34 34 SSE 7 11 29.58 1002 10 16 0.00 0.00
6:15 pm 18:15 Clear 53 11.7 26 -3.5 35 35 SSE 8 13 29.58 1002 10 16 0.00 0.00
6:35 pm 18:35 Clear 53 11.4 26 -3.4 36 36 SSE 7 11 29.58 1002 10 16 0.00 0.00
6:55 pm 18:55 Clear 52 11.2 26 -3.6 36 36 SSE 9 15 29.58 1002 10 16 0.00 0.00
7:15 pm 19:15 Clear 50 10 26 -3.4 39 39 S 6 9 29.59 1002 10 16 0.00 0.00
7:35 pm 19:35 Clear 50 9.9 26 -3.6 39 39 S 7 11 29.60 1002 10 16 0.00 0.00
7:55 pm 19:55 Clear 48 9.1 25 -3.7 41 41 SSW 7 11 29.60 1002 10 16 0.00 0.00
8:15 pm 20:15 Clear 47 8.6 26 -3.2 44 44 SSE 8 13 29.59 1002 10 16 0.00 0.00
8:35 pm 20:35 Clear 49 9.7 27 -2.6 42 42 SSE 7 11 29.58 1002 10 16 0.00 0.00
8:55 pm 20:55 Clear 50 10.1 27 -3 40 40 SE 6 9 29.57 1001 10 16 0.00 0.00
9:15 pm 21:15 Clear 51 10.6 27 -3 39 39 SSE 5 7 29.58 1002 10 16 0.00 0.00
9:35 pm 21:35 Clear 46 7.6 28 -2.1 51 51 Calm 29.61 1003 10 16 0.00 0.00
9:55 pm 21:55 Clear 42 5.8 29 -1.5 60 60 Calm 29.63 1003 10 16 0.00 0.00
10:15 pm 22:15 Clear 42 5.4 30 -1.1 63 63 Calm 29.63 1004 10 16 0.00 0.00
10:35 pm 22:35 Clear 42 5.7 29 -1.5 60 60 Calm 29.61 1003 10 16 0.00 0.00
10:55 pm 22:55 Clear 40 4.6 29 -1.4 65 65 Calm 29.64 1004 10 16 0.00 0.00
11:15 pm 23:15 Clear 41 4.8 29 -1.5 64 64 W 5 7 29.64 1004 10 16 0.00 0.00
11:35 pm 23:35 Clear 39 3.8 30 -1.1 71 71 W 7 11 29.65 1004 10 16 0.00 0.00
11:55 pm 23:55 Clear 38 3.2 28 -2 69 69 WSW 6 9 29.65 1004 10 16 0.00 0.00

Powered by AerisWeather